2015-10-07 00:00:54 r, 19.09m,0000000002Hz,0000236042c,0000000.512s, 012.8C,00002191
2015-10-07 00:10:54 r, 18.22m,0000000004Hz,0000106300c,0000000.231s, 012.8C,00002191
2015-10-07 00:20:54 r, 19.33m,0000000001Hz,0000294468c,0000000.639s, 012.5C,00002191
2015-10-07 00:30:54 r, 19.79m,0000000001Hz,0000450363c,0000000.977s, 012.5C,00002191
2015-10-07 00:40:54 r, 20.30m,0000000001Hz,0000713373c,0000001.548s, 012.2C,00002191
2015-10-07 00:50:54 r, 20.20m,0000000000Hz,0000652651c,0000001.416s, 012.2C,00002191
2015-10-07 01:00:54 r, 20.21m,0000000001Hz,0000656764c,0000001.425s, 011.9C,00002191
2015-10-07 01:10:54 r, 20.36m,0000000000Hz,0000752366c,0000001.633s, 011.9C,00002191
2015-10-07 01:20:54 r, 19.99m,0000000001Hz,0000538671c,0000001.169s, 011.9C,00002191
2015-10-07 01:30:54 r, 20.17m,0000000001Hz,0000636552c,0000001.381s, 012.2C,00002191
2015-10-07 01:40:54 r, 19.66m,0000000001Hz,0000398383c,0000000.865s, 012.2C,00002191
2015-10-07 01:50:56 r, 19.77m,0000000001Hz,0000439539c,0000000.954s, 012.2C,00002191
2015-10-07 02:00:54 r, 19.84m,0000000001Hz,0000469536c,0000001.019s, 012.2C,00002191
2015-10-07 02:10:54 r, 19.65m,0000000001Hz,0000392383c,0000000.852s, 012.2C,00002191
2015-10-07 02:20:54 r, 19.48m,0000000002Hz,0000338674c,0000000.735s, 011.9C,00002191
2015-10-07 02:30:54 r, 19.46m,0000000002Hz,0000333117c,0000000.723s, 011.9C,00002191
2015-10-07 02:40:54 r, 19.46m,0000000001Hz,0000333132c,0000000.723s, 011.9C,00002191
2015-10-07 02:50:54 r, 19.61m,0000000001Hz,0000379222c,0000000.823s, 011.6C,00002191
2015-10-07 03:00:54 r, 19.44m,0000000002Hz,0000327296c,0000000.710s, 011.6C,00002191
2015-10-07 03:10:54 r, 19.52m,0000000001Hz,0000350112c,0000000.760s, 011.6C,00002191
2015-10-07 03:20:55 r, 19.52m,0000000001Hz,0000348392c,0000000.756s, 011.2C,00002191
2015-10-07 03:30:54 r, 19.19m,0000000002Hz,0000257185c,0000000.558s, 011.2C,00002191
2015-10-07 03:40:54 r, 19.38m,0000000001Hz,0000309124c,0000000.671s, 010.9C,00002191
2015-10-07 03:50:54 r, 19.33m,0000000002Hz,0000294793c,0000000.640s, 010.9C,00002191
2015-10-07 04:00:54 r, 19.28m,0000000002Hz,0000282150c,0000000.612s, 011.2C,00002191
2015-10-07 04:10:54 r, 19.59m,0000000001Hz,0000374197c,0000000.812s, 011.2C,00002191
2015-10-07 04:20:54 r, 18.88m,0000000002Hz,0000192900c,0000000.419s, 011.2C,00002191
2015-10-07 04:30:54 r, 18.88m,0000000002Hz,0000193721c,0000000.420s, 011.6C,00002191
2015-10-07 04:40:54 r, 19.15m,0000000002Hz,0000249086c,0000000.541s, 011.6C,00002191
2015-10-07 04:50:54 r, 19.26m,0000000002Hz,0000275667c,0000000.598s, 011.6C,00002191
2015-10-07 05:00:54 r, 19.14m,0000000002Hz,0000246670c,0000000.535s, 011.6C,00002191
2015-10-07 05:10:54 r, 19.20m,0000000002Hz,0000260070c,0000000.564s, 011.6C,00002191
2015-10-07 05:20:54 r, 19.19m,0000000001Hz,0000258596c,0000000.561s, 011.6C,00002191
2015-10-07 05:30:54 r, 19.34m,0000000001Hz,0000298590c,0000000.648s, 011.6C,00002191
2015-10-07 05:40:54 r, 19.59m,0000000001Hz,0000374283c,0000000.812s, 011.6C,00002191
2015-10-07 05:50:54 r, 19.66m,0000000001Hz,0000398431c,0000000.865s, 011.6C,00002191
2015-10-07 06:00:54 r, 19.65m,0000000001Hz,0000395716c,0000000.859s, 011.2C,00002191
2015-10-07 06:10:54 r, 19.60m,0000000002Hz,0000376417c,0000000.817s, 011.2C,00002191
2015-10-07 06:20:54 r, 19.40m,0000000001Hz,0000312859c,0000000.679s, 011.2C,00002191
2015-10-07 06:30:54 r, 18.66m,0000000003Hz,0000158569c,0000000.344s, 011.2C,00002191
2015-10-07 06:40:54 r, 17.32m,0000000010Hz,0000046419c,0000000.101s, 011.2C,00002191
2015-10-07 06:50:55 r, 15.71m,0000000043Hz,0000010588c,0000000.023s, 011.2C,00002191
2015-10-07 07:00:54 r, 13.69m,0000000284Hz,0000000000c,0000000.000s, 011.6C,00002191
2015-10-07 07:10:54 r, 11.76m,0000001665Hz,0000000000c,0000000.000s, 011.9C,00002191
2015-10-07 07:20:54 r, 09.67m,0000011449Hz,0000000000c,0000000.000s, 011.9C,00002191
2015-10-07 07:30:54 r, 08.02m,0000052470Hz,0000000000c,0000000.000s, 011.9C,00002191
2015-10-07 07:40:54 r, 07.09m,0000123041Hz,0000000000c,0000000.000s, 011.9C,00002191
2015-10-07 07:50:55 r, 06.49m,0000214173Hz,0000000000c,0000000.000s, 012.2C,00002191
2015-10-07 08:00:54 r, 05.92m,0000363807Hz,0000000000c,0000000.000s, 012.5C,00002191
2015-10-07 08:10:54 r, 00.00m,0000497584Hz,0000000000c,0000000.000s, 013.2C,00002191
2015-10-07 08:20:55 r, 00.00m,0000596867Hz,0000000000c,0000000.000s, 014.1C,00002191
2015-10-07 08:30:54 r, 00.00m,0000596760Hz,0000000000c,0000000.000s, 015.1C,00002191
2015-10-07 08:40:54 r, 00.00m,0000596568Hz,0000000000c,0000000.000s, 016.7C,00002191
2015-10-07 08:50:54 r, 00.00m,0000596565Hz,0000000000c,0000000.000s, 017.7C,00002191
2015-10-07 09:00:54 r, 00.00m,0000596459Hz,0000000000c,0000000.000s, 018.0C,00002191
2015-10-07 09:10:54 r, 00.00m,0000596505Hz,0000000000c,0000000.000s, 018.3C,00002191
2015-10-07 09:20:54 r, 00.00m,0000596402Hz,0000000000c,0000000.000s, 019.0C,00002191
2015-10-07 09:30:54 r, 00.00m,0000596273Hz,0000000000c,0000000.000s, 019.9C,00002191
2015-10-07 09:40:54 r, 00.00m,0000596116Hz,0000000000c,0000000.000s, 020.9C,00002191
2015-10-07 09:50:54 r, 00.00m,0000596202Hz,0000000000c,0000000.000s, 021.5C,00002191
2015-10-07 10:00:54 r, 00.00m,0000596061Hz,0000000000c,0000000.000s, 022.2C,00002191
2015-10-07 10:10:54 r, 00.00m,0000596121Hz,0000000000c,0000000.000s, 022.8C,00002191
2015-10-07 10:20:54 r, 00.00m,0000595953Hz,0000000000c,0000000.000s, 023.2C,00002191
2015-10-07 10:30:54 r, 00.00m,0000596062Hz,0000000000c,0000000.000s, 023.5C,00002191
2015-10-07 10:40:54 r, 00.00m,0000595845Hz,0000000000c,0000000.000s, 024.1C,00002191
2015-10-07 10:50:54 r, 00.00m,0000595789Hz,0000000000c,0000000.000s, 024.8C,00002191
2015-10-07 11:00:54 r, 00.00m,0000595677Hz,0000000000c,0000000.000s, 025.4C,00002191
2015-10-07 11:10:54 r, 00.00m,0000595663Hz,0000000000c,0000000.000s, 026.4C,00002191
2015-10-07 11:20:55 r, 00.00m,0000595594Hz,0000000000c,0000000.000s, 026.7C,00002191
2015-10-07 11:30:54 r, 00.00m,0000595669Hz,0000000000c,0000000.000s, 026.7C,00002191
2015-10-07 11:40:54 r, 00.00m,0000595576Hz,0000000000c,0000000.000s, 027.0C,00002191
2015-10-07 11:50:54 r, 00.00m,0000595523Hz,0000000000c,0000000.000s, 027.7C,00002191
2015-10-07 12:00:54 r, 00.00m,0000595493Hz,0000000000c,0000000.000s, 027.7C,00002191
2015-10-07 12:10:54 r, 00.00m,0000595511Hz,0000000000c,0000000.000s, 027.7C,00002191
2015-10-07 12:20:54 r, 00.00m,0000595627Hz,0000000000c,0000000.000s, 027.0C,00002191
2015-10-07 12:30:54 r, 00.00m,0000595585Hz,0000000000c,0000000.000s, 027.0C,00002191
2015-10-07 12:40:54 r, 00.00m,0000595515Hz,0000000000c,0000000.000s, 027.7C,00002191
2015-10-07 12:50:54 r, 00.00m,0000595518Hz,0000000000c,0000000.000s, 028.0C,00002191
2015-10-07 13:00:54 r, 00.00m,0000595427Hz,0000000000c,0000000.000s, 028.3C,00002191
2015-10-07 13:10:54 r, 00.00m,0000595230Hz,0000000000c,0000000.000s, 029.3C,00002191
2015-10-07 13:20:54 r, 00.00m,0000595200Hz,0000000000c,0000000.000s, 030.6C,00002191
2015-10-07 13:30:54 r, 00.00m,0000595202Hz,0000000000c,0000000.000s, 030.6C,00002191
2015-10-07 13:40:54 r, 00.00m,0000595203Hz,0000000000c,0000000.000s, 030.6C,00002191
2015-10-07 13:50:54 r, 00.00m,0000595309Hz,0000000000c,0000000.000s, 029.9C,00002191
2015-10-07 14:00:54 r, 00.00m,0000595511Hz,0000000000c,0000000.000s, 029.0C,00002191
2015-10-07 14:10:54 r, 00.00m,0000595621Hz,0000000000c,0000000.000s, 027.3C,00002191
2015-10-07 14:20:54 r, 00.00m,0000595733Hz,0000000000c,0000000.000s, 026.7C,00002191
2015-10-07 14:30:54 r, 00.00m,0000595761Hz,0000000000c,0000000.000s, 026.4C,00002191
2015-10-07 14:40:54 r, 00.00m,0000595642Hz,0000000000c,0000000.000s, 026.4C,00002191
2015-10-07 14:50:54 r, 00.00m,0000595684Hz,0000000000c,0000000.000s, 026.7C,00002191
2015-10-07 15:00:54 r, 00.00m,0000595598Hz,0000000000c,0000000.000s, 026.4C,00002191
2015-10-07 15:10:54 r, 00.00m,0000595687Hz,0000000000c,0000000.000s, 026.1C,00002191
2015-10-07 15:20:56 r, 00.00m,0000595697Hz,0000000000c,0000000.000s, 026.1C,00002191
2015-10-07 15:30:54 r, 00.00m,0000595659Hz,0000000000c,0000000.000s, 026.1C,00002191
2015-10-07 15:40:54 r, 00.00m,0000595765Hz,0000000000c,0000000.000s, 026.1C,00002191
2015-10-07 15:50:54 r, 00.00m,0000595750Hz,0000000000c,0000000.000s, 025.7C,00002191
2015-10-07 16:00:54 r, 00.00m,0000595674Hz,0000000000c,0000000.000s, 025.4C,00002191
2015-10-07 16:11:02 r, 00.00m,0000595851Hz,0000000000c,0000000.000s, 025.1C,00002191
2015-10-07 16:20:55 r, 00.00m,0000595862Hz,0000000000c,0000000.000s, 024.8C,00002191
2015-10-07 16:30:54 r, 00.00m,0000595811Hz,0000000000c,0000000.000s, 024.8C,00002191
2015-10-07 16:40:54 r, 00.00m,0000595859Hz,0000000000c,0000000.000s, 024.8C,00002191
2015-10-07 16:50:54 r, 00.00m,0000595970Hz,0000000000c,0000000.000s, 024.1C,00002191
2015-10-07 17:00:54 r, 00.00m,0000596051Hz,0000000000c,0000000.000s, 023.5C,00002191
2015-10-07 17:10:54 r, 00.00m,0000582489Hz,0000000000c,0000000.000s, 023.2C,00002191
2015-10-07 17:20:55 r, 00.00m,0000596102Hz,0000000000c,0000000.000s, 022.8C,00002191
2015-10-07 17:30:54 r, 06.04m,0000327224Hz,0000000000c,0000000.000s, 022.8C,00002191
2015-10-07 17:40:54 r, 00.00m,0000561965Hz,0000000000c,0000000.000s, 022.8C,00002191
2015-10-07 17:50:55 r, 05.91m,0000365719Hz,0000000000c,0000000.000s, 021.9C,00002191
2015-10-07 18:00:54 r, 06.46m,0000220839Hz,0000000000c,0000000.000s, 021.2C,00002191
2015-10-07 18:10:54 r, 07.27m,0000104433Hz,0000000000c,0000000.000s, 020.6C,00002191
2015-10-07 18:20:54 r, 06.77m,0000165525Hz,0000000000c,0000000.000s, 020.3C,00002191
2015-10-07 18:30:54 r, 06.88m,0000150267Hz,0000000000c,0000000.000s, 019.9C,00002191
2015-10-07 18:40:54 r, 06.96m,0000140130Hz,0000000000c,0000000.000s, 019.6C,00002191
2015-10-07 18:50:54 r, 08.65m,0000029347Hz,0000000000c,0000000.000s, 019.3C,00002191
2015-10-07 19:00:54 r, 09.95m,0000008930Hz,0000000000c,0000000.000s, 019.3C,00002191
2015-10-07 19:10:54 r, 12.18m,0000001143Hz,0000000000c,0000000.000s, 019.3C,00002191
2015-10-07 19:20:54 r, 11.94m,0000001412Hz,0000000000c,0000000.000s, 019.0C,00002191
2015-10-07 19:30:55 r, 15.98m,0000000034Hz,0000013536c,0000000.029s, 019.3C,00002191
2015-10-07 19:40:54 r, 17.91m,0000000006Hz,0000080769c,0000000.175s, 019.0C,00002191
2015-10-07 19:50:54 r, 18.55m,0000000003Hz,0000145074c,0000000.315s, 019.0C,00002191
2015-10-07 20:00:54 r, 19.33m,0000000002Hz,0000298554c,0000000.648s, 019.0C,00002191
2015-10-07 20:10:54 r, 19.68m,0000000001Hz,0000408799c,0000000.887s, 019.0C,00002191
2015-10-07 20:20:54 r, 19.67m,0000000001Hz,0000405187c,0000000.879s, 019.0C,00002191
2015-10-07 20:30:54 r, 19.76m,0000000001Hz,0000437616c,0000000.950s, 019.0C,00002191
2015-10-07 20:40:54 r, 19.80m,0000000001Hz,0000452156c,0000000.981s, 019.0C,00002191
2015-10-07 20:50:54 r, 19.73m,0000000001Hz,0000422473c,0000000.917s, 018.6C,00002191
2015-10-07 21:00:54 r, 19.77m,0000000001Hz,0000438361c,0000000.951s, 018.6C,00002191
2015-10-07 21:10:54 r, 19.81m,0000000001Hz,0000456828c,0000000.991s, 018.6C,00002191
2015-10-07 21:20:54 r, 19.86m,0000000001Hz,0000475295c,0000001.031s, 018.6C,00002191
2015-10-07 21:30:55 r, 19.85m,0000000001Hz,0000473195c,0000001.027s, 018.6C,00002191
2015-10-07 21:40:54 r, 19.85m,0000000001Hz,0000473043c,0000001.027s, 018.6C,00002191
2015-10-07 21:50:54 r, 19.85m,0000000001Hz,0000474994c,0000001.031s, 019.0C,00002191
2015-10-07 22:00:54 r, 19.83m,0000000001Hz,0000463693c,0000001.006s, 019.0C,00002191
2015-10-07 22:10:54 r, 19.83m,0000000001Hz,0000464669c,0000001.008s, 019.0C,00002191
2015-10-07 22:20:54 r, 19.85m,0000000001Hz,0000471346c,0000001.023s, 019.0C,00002191
2015-10-07 22:30:56 r, 19.79m,0000000002Hz,0000449287c,0000000.975s, 019.3C,00002191
2015-10-07 22:40:54 r, 19.95m,0000000001Hz,0000516391c,0000001.121s, 019.3C,00002191
2015-10-07 22:50:54 r, 19.96m,0000000000Hz,0000523043c,0000001.135s, 019.3C,00002191
2015-10-07 23:00:55 r, 19.64m,0000000002Hz,0000393194c,0000000.853s, 019.3C,00002191
2015-10-07 23:10:54 r, 19.99m,0000000001Hz,0000539413c,0000001.171s, 019.6C,00002191
2015-10-07 23:20:54 r, 19.69m,0000000001Hz,0000409941c,0000000.890s, 019.6C,00002191
2015-10-07 23:30:54 r, 19.90m,0000000001Hz,0000498278c,0000001.081s, 019.6C,00002191
2015-10-07 23:40:54 r, 19.88m,0000000001Hz,0000484759c,0000001.052s, 019.9C,00002191
2015-10-07 23:50:54 r, 19.88m,0000000001Hz,0000486869c,0000001.057s, 019.9C,00002191
